Regional Weather Roundup
Issued by NWS Kansas City/Pleasant Hill, MO

Home | Current Version | Previous Version | Graphics & Text | Print | Product List | Glossary Off
Versions: 1 2 3 4 5 6 7 8 9 10 11 12 13 14 15 16 17 18 19 20 21 22 23 24 25 26 27 28 29 30 31 32 33 34 35 36 37 38 39 40 41 42 43 44 45 46 47 48 49 50

000
ASUS43 KEAX 240004
RWREAX

WEATHER ROUNDUP FOR EASTERN KANSAS AND NORTHWEST MISSOURI
NATIONAL WEATHER SERVICE KANSAS CITY/PLEASANT HILL MO
700 PM CDT THU OCT 23 2014

KSZ040-057-103>105-MOZ028-029-037-043-240100-
...KANSAS CITY METROPOLITAN AREA...

CITY           SKY/WX    TMP DP  RH WIND       PRES   REMARKS
K.C. INTL      PTCLDY    57  56  96 S8        30.06R FOG
6HR MIN TEMP:  57; 6HR MAX TEMP:  65; 6HR PCP: TRACE;

K.C. DOWNTOWN  CLOUDY    64  59  83 S3        30.06R
6HR MIN TEMP:  64; 6HR MAX TEMP:  67;

LEES SUMMIT    PTCLDY    62  58  86 S6        30.07R
6HR MIN TEMP:  62; 6HR MAX TEMP:  65;

OLATHE - IXD   CLOUDY    62  59  90 S6        30.07R
6HR MIN TEMP:  62; 6HR MAX TEMP:  66;

OLATHE - OJC   CLOUDY    63  60  90 S3        30.07R
6HR MIN TEMP:  63; 6HR MAX TEMP:  65;

LAWRENCE       CLEAR     59  57  93 E6        30.06R

$$

MOZ001>008-011>017-020>025-030>033-038>040-044>046-053-054-240100-
...NORTHERN AND CENTRAL MISSOURI...

CITY           SKY/WX    TMP DP  RH WIND       PRES   REMARKS
ST. JOSEPH     CLEAR     63  60  90 S7        30.04R
6HR MIN TEMP:  63; 6HR MAX TEMP:  73;

MOSBY          CLOUDY    63  61  94 CALM      30.06R
WHITEMAN AFB   MOCLDY    63  58  83 SW8       30.07R
6HR MIN TEMP:  63; 6HR MAX TEMP:  69;

CLINTON        CLOUDY    63  59  88 S5        30.09S
SEDALIA        MOCLDY    63  57  81 SW6       30.09R
6HR MIN TEMP:  63; 6HR MAX TEMP:  68;

WARSAW         NOT AVBL
MARSHALL       CLOUDY    66  59  77 CALM      30.08R
CHILLICOTHE      N/A     60  57  89 CALM      30.06R
6HR MIN TEMP:  60; 6HR MAX TEMP:  65;

KIRKSVILLE     CLEAR     60  58  92 SW3       30.06R
6HR MIN TEMP:  59; 6HR MAX TEMP:  67;


$$

MOZ041-047>049-056>058-063>065-088>090-097-240100-
...EASTERN AND SOUTHERN MISSOURI...

CITY           SKY/WX    TMP DP  RH WIND       PRES   REMARKS
ST. LOUIS INTL CLOUDY    63  45  51 S7        30.10S
6HR MIN TEMP:  61; 6HR MAX TEMP:  65;

SPIRIT OF STL  CLOUDY    62  48  60 CALM      30.09R
COLUMBIA       PTCLDY    56  51  84 S6        30.08S
JEFFERSON CITY CLOUDY    62  52  69 SE5       30.09R
MEXICO         CLOUDY    61  55  82 S5        30.08
ROLLA          MOCLDY    56  48  74 S6        30.09S
OSAGE BEACH    CLOUDY    61  50  67 CALM      30.10S
SPRINGFIELD    CLOUDY    59  55  87 S3        30.10S
BRANSON        CLOUDY    61  52  72 SE6       30.13S
NEVADA         CLOUDY    61  57  88 S5        30.11R
JOPLIN         CLOUDY    60  57  89 S5        30.11R
WEST PLAINS    CLOUDY    56  47  71 CALM      30.13F

$$

IAZ060-094-KSZ022-034>040-054-083-096-NEZ052-066-093-240100-
...KANSAS...SOUTHEAST NEBRASKA AND IOWA...

CITY           SKY/WX    TMP DP  RH WIND       PRES   REMARKS
TOPEKA         CLEAR     64  62  93 E5        30.05R
6HR MIN TEMP:  64; 6HR MAX TEMP:  72;

MANHATTAN      CLEAR     65  57  75 SW3       30.02R
EMPORIA        PTCLDY    62  60  93 SE6       30.05R
CHANUTE        CLOUDY    63  59  87 SE8       30.07S
WICHITA        MOCLDY    69  59  70 S7        30.03S
OMAHA          PTCLDY    67  48  50 S5        30.01S
LINCOLN        PTCLDY    64  50  60 CALM      30.02S
FALLS CITY     CLEAR     67  52  58 S6        30.02R
LAMONI         CLEAR     63  56  78 S5        30.03R
DES MOINES     PTCLDY    62  51  67 SE7       30.02R

$$




USA.gov is the U.S. government's official web portal to all federal, state and local government web resources and services.